Terminal Aerodrome Forecast
Issued by NWS

Home | Current Version | Previous Version | Graphics & Text | Print | Product List | Glossary On
Versions: 1 2 3 4 5 6 7 8 9 10 11 12 13 14 15 16 17 18 19 20 21 22 23 24 25 26 27 28 29 30 31 32 33 34 35 36 37 38 39 40 41 42 43 44 45 46 47 48 49 50
000
FTUS43 KLOT 290254 AAA
TAFGYY
TAF AMD
KGYY 290254Z 2903/2924 VRB04KT P6SM BKN250
     FM290600 VRB04KT P6SM VCSH BKN070 BKN100
     FM291000 24007KT 6SM -SHRA VCTS SCT020 OVC040CB
     FM291400 29011G16KT P6SM SCT020 BKN100
     FM291800 29012G19KT P6SM SCT150=

USA.gov is the U.S. government's official web portal to all federal, state and local government web resources and services.